Location: Fluertsh�userhof
(48.7537°N, 10.3850°E)
Time: 02:57:09
(UTC+00:00)

SJ 16-02 - Pass Details

Date: 18 September 2020
Orbit: 606 x 616 km, 75.0° (Epoch: 24 October)

Event Time Altitude Azimuth Distance (km) Brightness Sun altitude
Rises 17:57:57 0° 207° (SSW) 2,854 5.0 -6.4°
Reaches altitude 10° 18:00:12 10° 211° (SSW) 1,954 4.2 -6.7°
Maximum altitude 18:04:32 66° 294° (WNW) 668 1.8 -7.4°
Drops below altitude 10° 18:08:54 10° 17° (NNE) 1,967 3.9 -8.1°
Sets 18:11:10 0° 20° (NNE) 2,876 4.7 -8.5°
